COSMOS 2491 DEB, 57563

Orbit data source: Space-Track

COSMOS 2491 DEB, 57563 is space debris in LEO originally from a launch on Wed, 25 Dec 2013 UTC launched from the Plesetsk Missile And Space Complex (PKMTR). Debris objects in space refer to the collection of defunct objects orbiting the Earth. Examples of debris include non-operational satellites, rocket bodies, and fragments generated from explosions, collisions, or faulty payload assembly.

Loading next visibility...
Identifier
57563, 2013-076BA
Orbit
LEO
Country
Flag of CISCIS
Related business
Manufacturer
TsNIIKhM
Mission
Spacecraft
Bus & Motor
Unknown
Mass
Unknown
Launch date (UTC)
2013-12-25 (12 years ago)
Launch vehicle
Unknown
Launch site
Plesetsk Missile And Space Complex (PKMTR)
Object type
Payload
Rocket body
Debris
Shape & HBR
Unknown shape, 0.1 m
Radar Cross Section
Small (<0.1 m²)

Expand to show TLE details & history
Last TLE update: 3 weeks ago

TLE from 3 weeks ago
0 COSMOS 2491 DEB
1 57563U 13076BA  25267.38902790  .00004143  00000-0  23086-1 0  9995
2 57563  82.4742 309.4393 0114419 167.0467 193.3606 12.60470445109109
Epoch: 2025-09-24T09:20Z
TLE epoch observation values (Epoch: 2025-09-24T09:20:12.010Z)
Latitude
0.00001°
Longitude
165.92405°
Altitude
1,510.619 km
Speed
7.07 km/s
True Right ascension
20h 37m 45s
True Declination
0° 00' 00"
Sunlit
Object was in full shadow at epoch
Visualization orbit readout
Latitude
Unknown
Longitude
Unknown
Altitude
Unknown
Speed
Unknown
Apparent Right ascension
Unknown
Apparent Declination
Unknown
Sunlit
N/A
Visualization observer readout
Local Sidereal Time
19:09:05
Azimuth
Unknown
Elevation
Unknown
Doppler factor
Unknown
Orbital elements
Apogee altitude
1,507.536 km
Perigee altitude
1,329.124 km
Semi-major axis
7,796.467 km
Eccentricity
0.01144
Inclination
82.4742°
RAAN
309.4393°
Arg. of periapsis
167.0467°
True anomaly
193.06178°
Mean anomaly
193.3606°
Eccentric anomaly
193.21078°
Mean motion
3.1528 °/min
Orbital period
114.18 mins
BSTAR
0.023086
Loading maneuver chart data...
Computing Atmospheric mass density...
Loading historical data...
Loading historical data...
Loading historical data...
Loading historical data...
Loading historical data...
Loading historical data...
Loading historical data...

Documentation

Showing up to 5 results
|